Location: Baix
(44.7118°N, 4.7648°E)
Time: 01:11:29
(UTC+00:00)

Vanguard 3 - Pass Details

Date: 02 December 2020
Orbit: 508 x 3262 km, 33.3° (Epoch: 19 January)

Event Time Altitude Azimuth Distance (km) Brightness Sun altitude
Rises 19:31:00 0° 227° (SW) 2,862 10.5 -36.5°
Enters shadow 19:32:12 - 220° (SW) 2,435 10.0 -36.7°
Reaches altitude 10° 19:34:31 10° 197° (SSW) 1,765 - -37.1°
Maximum altitude 19:36:14 13° 169° (S) 1,560 - -37.4°
Drops below altitude 10° 19:37:55 10° 142° (SE) 1,712 - -37.7°
Sets 19:41:13 0° 111° (ESE) 2,684 - -38.3°
